Back to catalog

FENGYUN 1C DEB

AlivePO
NORAD 31672·DEBRIS·🇨🇳 China

Launched May 10, 1999 from Taiyuan Satellite Launch Center

Loading…

Next Passes (next 24 hours)

TLE

AgingSource: Space-Track

Epoch: Sep 9, 2026, 07:42 UTC

1 31672U 99025CCE 26252.32134537  .00004021  00000-0  89935-3 0  9993
2 31672  98.9418 103.1623 0099974 245.3706 113.7049 14.54288594688008

Track FENGYUN 1C DEB in real time with AllMySat

Download on the App Store